sat.trackr.live / text

‹ back to catalog

STARLINK-35891

NORAD 67045 · 2025-294R

PAYLOAD ACTIVE UNKNOWN

§ Identity

Operator
Country
US
Launch date
2025-12-11
Launch site
AFETR
Launch vehicle
Mass (kg)
RCS (m²)

Purposes: comms

External: N2YO · Heavens-Above · Gunter

§ Orbital elements

Epoch: 2026-05-24T18:50:46.023360Z

Period
94.27 min
Inclination
43.0016°
Eccentricity
0.0001415
Mean motion
15.27591329 rev/d
Perigee alt
482.0 km
Apogee alt
484.0 km
Semi-major
6,861.2 km
B*
7.0502e-4
RAAN
328.6183°
Arg perigee
268.7339°
Mean anomaly
91.3351°
Rev number
2,643

§ Raw data

STARLINK-358911 67045U 25294R   26144.78525490  .00019196  00000+0  70502-3 0  99932 67045  43.0016 328.6183 0001415 268.7339  91.3351 15.27591329 26439

JSON: /api/v1/satellites/67045 · /tle

For live sub-satellite position, see the globe view (requires WebGL).

§ Visibility from observer

Set your observer location to see the next 7 days of passes ≥ 10°. The values pass through the URL so the page stays shareable.

No JS? Fill the form by hand. The geolocation button needs JavaScript.